This is the latest recevied weather packets stored in our database for station/object F5MAP-5. If no packets are shown the sender has not sent any weather packets the latest 10 day(s).
| Time | Temp. | Humidity | Pressure | Rain* | Wind** | Luminosity | Snow |
|---|---|---|---|---|---|---|---|
| 1787502732 | 23.89° C | 48% | 1020.2 hPa | 0 mm | - | 83 W/m² | - |
| 1787502132 | 23.89° C | 47% | 1020.2 hPa | 0 mm | - | 91 W/m² | - |
| 1787501532 | 23.89° C | 46% | 1020.3 hPa | 0 mm | - | 44 W/m² | - |
| 1787500932 | 24.44° C | 46% | 1020.3 hPa | 0 mm | - | 49 W/m² | - |
| 1787500332 | 24.44° C | 47% | 1020.3 hPa | 0 mm | - | 47 W/m² | - |
| 1787499732 | 24.44° C | 47% | 1020.4 hPa | 0 mm | - | 63 W/m² | - |
| 1787499132 | 24.44° C | 46% | 1020.4 hPa | 0 mm | - | 69 W/m² | - |
| 1787498532 | 24.44° C | 46% | 1020.3 hPa | 0 mm | - | 47 W/m² | - |
| 1787497932 | 24.44° C | 45% | 1020.4 hPa | 0 mm | - | 49 W/m² | - |
| 1787497332 | 24.44° C | 46% | 1020.5 hPa | 0 mm | - | 51 W/m² | - |
| 1787496732 | 24.44° C | 45% | 1020.5 hPa | 0 mm | - | 53 W/m² | - |
| 1787496132 | 24.44° C | 46% | 1020.6 hPa | 0 mm | - | 44 W/m² | - |
| 1787495532 | 24.44° C | 46% | 1020.6 hPa | 0 mm | - | 67 W/m² | - |
| 1787494932 | 24.44° C | 46% | 1020.6 hPa | 0 mm | - | 65 W/m² | - |
| 1787494332 | 25° C | 46% | 1020.6 hPa | 0 mm | - | 81 W/m² | - |
| 1787493732 | 24.44° C | 46% | 1020.6 hPa | 0 mm | - | 84 W/m² | - |
| 1787493132 | 24.44° C | 45% | 1020.8 hPa | 0 mm | - | 69 W/m² | - |
| 1787492532 | 25° C | 45% | 1020.9 hPa | 0 mm | - | 79 W/m² | - |
| 1787491932 | 25° C | 46% | 1021 hPa | 0 mm | - | 705 W/m² | - |
| 1787491332 | 25° C | 47% | 1021 hPa | 0 mm | - | 780 W/m² | - |
| 1787490732 | 25.56° C | 46% | 1021 hPa | 0 mm | - | 306 W/m² | - |
| 1787490132 | 25.56° C | 45% | 1021 hPa | 0 mm | - | 724 W/m² | - |
| 1787489532 | 25.56° C | 46% | 1021.2 hPa | 0 mm | - | 745 W/m² | - |
| 1787488932 | 25.56° C | 46% | 1021.2 hPa | 0 mm | - | 740 W/m² | - |
| 1787488332 | 25.56° C | 46% | 1021.2 hPa | 0 mm | - | 768 W/m² | - |
* Rain latest hour (hover to see other rain measurements)
** Current wind speed in m/s (hover to see current wind gust speed)